GFSMA_sfc_dewp_132.txt.gz
Dewpoint
71 70 70 68 68 69 70 69 69 68 68 68 67 66 66 66 65 63 64 65 65 67 68 68 69 70 70 69 68 68 68 68 68 67 67 67 67 66 66 66 66 66 66
70 69 70 70 69 69 69 70 70 69 68 68 67 67 67 67 66 66 64 65 64 65 67 68 68 70 71 69 68 68 68 68 68 67 67 66 66 65 65 65 65 66 66
61 69 70 69 70 70 70 70 69 69 68 68 68 68 67 68 67 67 66 65 64 63 64 66 68 69 70 70 68 68 68 68 68 67 66 66 66 65 65 65 64 65 65
57 60 64 68 69 69 68 68 68 67 67 68 67 67 67 68 67 67 67 66 65 64 63 63 65 67 68 68 69 68 68 68 68 67 67 66 66 65 65 64 64 64 65
53 54 59 60 60 65 65 66 67 67 66 66 67 67 68 67 67 66 66 65 66 66 64 63 62 64 65 66 67 68 69 68 68 68 67 66 66 65 65 65 64 64 65
49 50 52 54 57 60 62 64 64 65 64 62 64 66 66 67 67 66 65 64 64 65 66 66 66 64 62 64 66 67 68 69 69 68 67 67 66 65 65 64 64 64 64
48 48 48 50 52 53 57 59 61 63 63 61 62 63 62 60 67 66 66 64 64 65 66 66 67 65 63 62 64 66 67 69 69 69 67 66 66 65 64 64 64 64 64
46 45 47 48 49 50 52 55 57 58 61 63 61 60 58 59 63 64 66 65 65 64 65 65 65 66 66 64 65 64 66 68 68 68 68 66 66 65 64 64 64 64 64
44 46 46 46 48 48 48 51 52 54 55 58 61 60 57 55 56 64 64 65 66 64 64 64 64 64 65 65 64 63 61 62 66 67 67 66 66 65 65 64 64 64 64
41 43 44 44 45 45 47 47 47 50 51 52 56 59 61 61 57 57 62 64 64 63 63 61 61 61 61 63 63 61 58 57 61 65 66 66 66 66 65 64 64 64 64
39 39 41 41 42 42 44 44 46 47 48 48 50 53 56 60 62 59 55 58 61 61 58 58 59 59 60 59 60 61 57 55 57 61 64 66 66 65 65 65 64 64 64
37 39 38 39 39 40 41 41 42 44 44 45 47 49 51 53 57 58 57 56 56 57 58 59 59 55 57 57 58 56 56 55 55 58 61 63 64 64 65 65 65 65 64
34 36 36 36 37 37 39 40 41 41 42 43 44 45 47 50 53 53 57 57 56 55 56 58 58 58 57 58 58 56 56 53 54 55 57 60 61 63 63 64 64 64 64
32 34 34 35 36 37 37 38 39 40 41 43 43 44 44 46 48 52 52 57 57 55 55 57 58 58 59 59 58 54 60 52 52 52 54 56 58 59 59 60 61 62 63
30 32 33 33 34 35 36 36 37 38 39 41 42 44 44 44 47 48 51 53 57 54 54 55 57 58 58 58 58 61 63 56 51 51 50 52 54 56 56 57 58 59 59
30 31 31 31 32 32 33 34 35 36 37 38 39 42 44 45 46 47 47 51 55 56 54 52 53 56 57 55 57 61 61 55 51 49 49 50 51 53 54 54 55 56 57
29 29 30 30 30 30 31 32 33 33 35 36 39 40 42 44 45 46 46 50 52 56 55 55 54 56 59 58 58 60 61 61 60 49 48 48 49 49 50 51 51 53 54
29 28 29 29 29 29 30 30 30 33 34 35 36 37 38 39 42 46 46 47 50 52 56 55 55 56 58 60 60 60 60 59 60 53 49 48 48 47 47 48 49 50 51
28 28 28 28 30 30 28 30 30 30 31 33 35 37 37 39 41 43 45 47 48 50 56 56 56 56 57 58 60 61 62 62 61 54 48 47 47 47 47 47 48 48 49
28 27 28 28 30 29 28 29 28 28 28 30 33 34 38 39 40 42 43 47 48 49 53 55 56 57 57 58 60 59 59 61 60 59 52 50 48 47 46 47 47 48 48
27 27 27 27 28 28 30 29 29 28 28 28 30 31 33 35 37 37 41 44 46 49 51 52 53 55 57 57 56 58 58 59 59 55 54 51 51 51 50 46 50 48 47
27 28 27 26 27 28 29 29 29 29 28 27 27 28 30 32 35 35 35 34 34 38 43 50 53 53 53 56 57 57 57 56 52 50 52 51 49 49 49 50 47 46 45
28 26 27 28 28 29 25 27 28 29 27 26 27 27 27 29 30 31 31 31 32 32 33 35 43 34 39 36 41 44 54 55 56 56 53 47 42 41 40 40 39 40 42
27 26 25 26 26 27 24 24 24 26 26 25 26 26 27 27 28 28 28 28 28 30 31 32 31 32 33 33 39 40 41 46 45 42 46 42 36 36 35 38 38 38 38
26 24 24 23 23 24 22 23 24 25 24 23 24 25 25 26 28 29 26 25 26 26 30 31 32 32 31 32 32 36 34 39 38 34 33 36 33 32 33 33 35 37 37
25 25 23 23 21 23 20 20 21 24 22 22 22 22 22 23 25 26 25 25 24 26 27 28 28 30 31 31 31 30 29 32 35 36 32 34 34 34 33 33 34 34 34

GFSMA_sfc_dewp_135.txt.gz
Dewpoint
71 71 72 70 70 71 69 69 69 68 68 68 67 67 65 65 64 61 60 65 66 68 69 69 69 70 71 70 69 69 69 69 68 67 67 67 66 66 67 66 66 66 66
62 66 71 70 71 71 72 70 69 67 68 69 68 68 67 66 66 68 64 65 64 66 67 69 69 69 71 70 69 68 68 69 68 68 67 67 66 66 65 65 65 66 66
59 60 65 69 69 70 70 69 67 69 70 69 67 68 68 67 67 66 67 66 64 63 64 66 68 69 70 70 69 68 68 68 68 68 67 66 66 66 65 65 65 65 65
57 59 62 64 64 64 67 67 66 64 65 67 67 67 67 67 67 67 67 66 66 64 63 64 65 67 68 69 69 69 68 68 68 68 67 66 66 66 65 64 65 64 65
53 54 55 57 59 61 63 66 66 67 66 66 65 66 67 67 67 65 66 66 67 67 65 63 63 64 66 67 69 69 69 69 68 68 67 67 66 66 65 65 64 64 64
49 50 50 53 54 55 57 60 62 63 65 64 64 64 64 65 68 68 66 65 65 67 66 66 66 64 62 65 67 68 68 69 69 69 68 67 66 66 65 65 65 64 64
48 48 47 49 50 51 53 55 56 59 60 63 62 62 63 64 65 65 68 67 66 65 66 66 67 67 64 63 65 67 68 68 69 69 68 67 66 65 65 65 64 64 64
45 45 47 47 48 48 50 51 53 53 56 58 60 60 58 59 63 64 64 62 60 65 65 65 66 66 65 64 64 64 66 68 68 68 67 67 66 66 65 65 64 64 64
43 45 44 46 46 46 46 49 50 51 50 52 57 58 56 54 56 59 60 63 62 65 65 65 65 65 66 66 64 63 61 63 66 68 67 67 66 66 65 65 64 64 64
41 42 44 43 43 44 45 45 45 48 49 48 50 51 58 59 55 54 60 63 64 64 65 66 66 65 65 66 64 61 58 58 61 65 67 67 66 66 65 65 65 64 64
39 40 41 41 41 40 42 43 44 44 45 45 46 48 50 52 55 58 55 56 60 62 64 65 65 64 64 64 64 63 56 56 57 61 64 66 66 65 65 65 65 64 64
36 38 38 38 38 38 39 39 41 41 41 42 44 45 45 47 47 52 55 55 55 57 61 63 64 63 62 62 60 57 56 55 55 57 61 63 64 65 65 65 65 65 64
34 35 35 35 35 36 37 38 38 40 40 40 41 42 44 45 46 47 51 52 54 56 59 61 62 61 58 59 60 55 54 53 54 55 57 60 62 63 63 64 65 65 65
31 33 33 33 34 34 36 36 37 38 38 41 40 42 42 42 44 45 46 51 50 51 56 58 60 61 60 59 57 53 57 52 53 53 54 56 58 59 60 61 62 63 63
30 31 31 32 32 33 33 35 35 36 36 38 39 40 40 42 44 44 46 47 49 48 49 53 57 58 60 60 58 61 60 54 51 51 52 53 55 57 58 58 59 60 61
30 29 30 30 30 31 32 32 33 33 35 36 36 38 39 40 42 44 44 45 47 47 47 50 54 57 57 56 57 60 60 55 51 50 50 50 52 54 55 56 57 57 58
30 29 29 29 29 30 30 30 30 31 32 33 35 36 37 39 40 42 44 45 46 47 47 49 52 56 57 57 59 60 60 60 59 50 49 49 49 51 51 52 53 54 54
29 29 29 29 29 30 29 29 30 29 29 29 31 33 35 35 38 40 42 43 45 46 48 49 51 52 55 57 59 60 60 58 60 52 49 49 48 48 48 49 49 50 51
28 28 28 28 28 29 28 28 29 28 28 29 29 30 33 33 37 39 40 42 43 46 47 48 48 52 54 56 57 59 60 61 60 54 48 48 47 47 47 47 48 48 49
26 26 27 27 28 27 27 27 28 27 26 27 29 29 31 32 35 36 38 40 42 44 46 46 48 50 54 55 56 57 58 60 60 60 54 51 49 47 46 46 46 47 47
26 25 25 25 26 25 27 27 28 27 26 25 27 28 30 32 35 35 34 35 38 42 44 46 48 50 52 53 55 57 57 59 61 62 61 57 55 53 51 46 48 47 46
27 27 26 26 25 23 24 25 27 27 26 25 26 27 28 29 30 32 33 32 32 33 38 41 43 43 41 41 43 49 55 56 57 53 54 56 55 55 54 53 47 46 45
27 26 27 27 27 26 22 24 24 27 26 25 25 25 26 27 28 29 30 30 30 31 31 32 31 30 30 31 33 40 48 52 52 49 55 50 45 46 45 43 42 45 44
28 27 25 25 25 24 21 22 23 26 25 24 23 24 24 25 26 27 28 27 28 29 30 31 30 30 31 32 32 36 40 44 47 38 36 39 36 35 36 38 38 39 40
29 27 26 24 24 24 20 20 23 24 23 22 22 22 22 22 25 27 24 25 25 26 31 33 33 32 31 32 31 31 30 37 39 33 31 33 33 33 33 33 35 37 37
27 28 27 25 22 23 20 19 21 25 22 21 21 21 20 21 21 22 22 22 22 25 27 28 29 30 30 31 32 31 29 27 32 33 32 31 33 33 34 33 33 33 34

GFSMA_sfc_dewp_138.txt.gz
Dewpoint
63 66 69 70 68 69 68 68 67 67 66 67 67 65 65 65 63 64 65 65 67 69 70 69 70 70 71 70 69 69 69 69 68 68 66 66 66 67 67 66 66 67 67
59 60 63 66 68 68 69 68 67 67 66 67 67 67 67 66 66 65 66 65 65 66 68 69 70 70 71 71 69 69 69 69 68 68 67 66 66 66 66 66 66 66 66
57 58 61 64 65 65 65 66 66 65 63 59 62 65 67 66 66 67 67 67 64 63 65 67 68 69 70 71 70 68 68 68 68 68 67 66 66 66 66 66 65 65 66
53 54 58 61 60 61 65 65 66 65 61 61 61 61 66 67 66 66 67 67 66 65 63 64 66 67 68 70 70 69 68 68 68 68 67 66 66 66 65 65 65 65 65
51 51 51 53 54 55 57 61 61 62 63 62 61 64 64 65 65 65 65 66 66 66 66 64 63 64 66 67 69 70 70 68 68 68 68 67 66 66 65 65 65 65 65
49 49 49 50 51 51 52 53 55 59 61 61 63 63 64 64 65 65 65 66 66 66 66 66 64 63 62 65 66 68 70 70 69 69 68 68 67 66 65 65 65 65 64
47 46 47 48 49 48 50 51 53 53 55 59 59 60 61 62 63 64 65 65 65 65 65 67 67 64 63 62 64 67 69 70 69 69 68 68 67 66 65 65 65 64 64
45 43 45 45 45 45 46 47 49 50 50 53 56 57 55 56 60 62 62 63 63 65 66 65 65 66 65 64 63 64 67 68 68 68 68 67 66 66 65 65 65 64 64
43 45 44 44 43 43 43 44 45 45 46 48 52 54 52 52 54 57 60 62 62 62 62 62 64 65 65 66 64 63 62 63 66 67 67 67 66 66 66 65 65 65 64
41 42 41 40 41 40 41 41 42 42 43 44 46 48 52 53 51 50 53 56 61 61 61 63 64 64 64 65 64 62 59 59 61 65 67 67 66 66 66 66 65 65 64
38 38 37 37 37 37 38 38 38 38 39 40 42 43 44 46 49 50 47 48 54 60 62 63 63 64 64 64 64 63 58 57 58 62 64 66 66 66 66 66 65 65 64
35 35 34 35 35 36 35 37 36 38 38 39 39 39 40 43 43 45 46 46 47 51 56 60 62 63 64 64 64 59 56 55 56 58 61 64 65 65 65 65 65 65 65
32 32 33 33 32 34 35 35 36 35 37 37 38 39 38 39 41 41 43 44 46 49 50 52 58 62 63 64 63 58 58 54 55 55 58 60 62 63 64 64 65 65 65
32 32 32 32 32 32 33 34 34 34 35 37 36 37 38 39 39 39 40 42 42 44 46 49 53 58 61 61 59 55 60 52 52 54 55 57 58 59 60 61 62 63 64
30 31 32 31 31 32 32 32 32 32 33 34 35 36 36 37 39 41 39 41 41 41 41 44 47 51 55 60 60 61 60 55 52 52 52 54 55 57 58 59 59 60 61
31 30 30 30 31 30 30 30 30 32 32 31 31 32 34 35 37 39 40 42 42 42 40 43 45 48 50 52 56 61 62 57 50 50 50 51 53 54 55 56 57 58 59
30 29 29 29 30 29 29 29 30 29 30 30 30 29 31 32 36 35 38 39 42 43 42 42 44 46 48 52 51 56 61 62 60 50 49 50 50 50 51 52 53 55 56
29 29 29 29 29 28 28 28 31 29 28 29 29 29 29 30 31 32 35 37 39 41 42 41 42 44 47 49 52 55 59 60 62 55 50 49 48 48 49 49 50 50 52
26 27 26 26 27 26 27 27 30 27 27 27 28 29 29 29 30 34 36 37 39 41 43 43 43 45 45 47 48 53 56 58 60 56 49 49 49 50 49 48 48 49 49
25 25 25 25 25 23 24 26 28 26 25 24 26 27 28 29 31 32 33 33 35 37 40 41 43 44 44 46 49 51 53 56 57 59 55 52 50 49 49 49 47 47 48
26 25 25 24 23 21 22 24 26 26 24 23 23 24 26 29 31 32 31 30 31 32 36 38 42 44 43 39 39 39 45 50 55 55 55 53 52 52 51 48 49 46 46
26 25 24 24 22 21 23 24 24 25 23 21 22 22 24 26 27 29 31 31 31 30 30 34 31 32 31 30 32 33 38 47 50 45 50 53 54 52 53 53 48 46 44
25 24 23 23 22 21 22 23 22 22 21 20 20 21 21 24 26 25 27 29 28 31 31 30 28 28 28 30 30 32 36 39 44 36 40 44 41 41 40 41 41 42 43
25 24 23 22 21 21 21 22 23 21 20 20 19 20 20 21 22 24 23 24 25 27 29 30 29 29 30 31 31 31 32 35 38 32 31 34 34 34 34 36 39 39 39
26 25 23 21 19 19 21 20 21 21 20 18 19 19 19 20 22 23 20 21 21 23 27 31 30 31 31 31 33 29 27 28 33 31 30 28 33 33 33 32 34 37 37
26 26 23 21 21 18 20 20 19 20 18 17 18 18 18 18 19 21 19 19 18 20 21 23 24 25 28 28 30 30 29 25 26 25 28 27 32 33 33 32 32 33 33

GFSMA_sfc_dewp_141.txt.gz
Dewpoint
58 60 61 64 66 64 66 66 66 66 67 66 66 63 63 62 67 66 65 65 67 69 70 71 71 71 71 69 69 69 69 68 68 68 67 67 66 67 67 67 67 67 67
56 56 58 62 64 64 65 66 66 64 63 63 62 64 62 63 67 67 66 66 65 66 69 70 71 71 71 70 69 68 68 68 68 68 67 66 66 66 66 66 66 66 66
51 52 55 60 57 60 61 64 64 64 62 62 62 62 62 63 67 67 67 66 66 64 65 68 69 70 70 70 69 68 68 68 68 68 67 66 66 66 66 66 65 65 66
49 49 51 52 52 54 57 58 59 62 62 60 60 60 61 64 64 65 66 66 67 66 64 64 66 67 69 70 71 70 69 68 68 68 67 67 66 66 65 65 65 65 65
47 48 47 48 49 50 50 52 53 56 59 62 60 59 60 62 63 65 65 65 66 66 66 64 63 64 66 68 69 71 70 69 68 68 68 67 66 66 65 65 65 65 65
46 47 46 47 46 46 46 47 49 51 53 57 59 60 63 64 64 64 64 64 66 66 66 66 64 64 62 65 67 69 71 70 69 69 68 67 67 66 65 65 65 65 65
43 44 45 44 43 44 44 45 45 46 49 50 55 56 58 61 62 63 64 64 64 64 65 66 66 65 64 63 65 67 69 70 70 69 68 67 67 66 65 65 65 65 64
42 40 40 40 40 41 41 41 42 43 46 46 49 51 51 54 57 60 62 64 64 64 65 65 64 64 65 65 63 64 67 68 69 69 68 67 66 66 66 65 65 65 65
38 37 37 37 37 38 38 39 39 39 40 43 42 47 48 48 50 53 55 58 61 62 62 63 64 64 64 66 64 63 62 62 66 68 68 67 66 66 66 65 65 65 65
35 35 35 35 35 36 35 35 36 37 37 38 40 43 43 45 49 48 51 52 52 55 60 61 61 61 61 63 64 62 59 58 60 65 66 67 67 66 66 66 65 65 65
33 33 33 33 33 33 33 35 33 35 36 37 38 37 39 40 42 46 45 46 49 51 55 59 62 63 63 63 64 62 58 56 58 62 64 65 66 66 66 66 65 65 65
32 32 32 33 33 33 33 34 34 34 34 35 37 37 38 38 39 39 41 41 41 44 48 51 53 57 62 64 63 59 57 55 56 59 61 63 65 65 65 65 66 66 65
31 31 31 31 32 32 33 33 33 33 34 34 35 36 37 37 39 39 38 38 38 40 43 46 51 54 55 60 63 59 58 53 54 56 58 60 62 63 64 64 65 65 65
30 30 30 31 31 31 31 31 32 32 32 33 33 34 35 37 38 38 37 38 37 37 38 39 44 49 52 52 54 55 60 53 52 53 55 56 58 59 60 61 62 63 64
29 30 30 30 29 29 29 30 31 31 31 31 31 31 30 33 35 36 38 39 38 36 35 39 41 47 49 52 53 57 60 56 52 51 51 53 56 57 58 59 60 61 62
29 30 29 29 28 28 28 28 31 29 28 29 28 29 29 30 31 33 36 37 38 38 36 37 39 41 43 44 46 49 55 53 53 49 48 50 52 55 56 57 57 58 59
28 28 27 28 25 26 26 27 28 26 26 26 27 28 28 28 28 30 31 32 34 36 36 38 40 41 41 43 45 49 49 52 58 53 51 48 48 50 52 54 55 56 57
28 27 25 25 23 24 26 26 27 24 24 24 24 25 26 25 27 30 32 35 36 37 37 37 38 39 40 41 42 44 47 49 53 54 51 51 48 48 48 49 51 51 52
25 25 23 23 22 23 24 25 28 24 22 23 22 23 24 26 27 29 31 29 31 31 34 38 39 40 42 44 43 43 44 49 54 53 51 49 47 47 47 48 48 49 50
24 25 23 22 22 22 23 23 23 21 20 21 22 23 24 27 28 28 28 28 28 29 31 34 37 39 42 41 38 40 38 43 44 52 53 50 49 47 47 47 47 47 47
24 24 23 21 22 21 22 22 22 20 19 19 21 21 24 27 28 28 28 28 28 29 29 30 32 33 31 30 31 33 35 39 45 40 46 53 53 52 50 46 49 47 46
23 22 22 21 21 20 23 22 21 21 20 19 20 19 22 24 24 25 27 28 28 27 27 27 27 26 27 28 30 31 33 39 44 37 35 47 47 46 44 41 42 43 46
20 21 18 19 19 21 22 23 23 19 18 17 19 18 21 22 21 21 23 25 25 27 29 27 26 26 26 28 30 30 31 34 37 31 32 37 37 36 37 39 40 40 41
13 13 17 17 17 20 21 21 21 14 13 15 17 18 18 18 20 20 19 20 21 22 25 27 26 26 27 28 30 31 29 31 32 30 30 28 33 33 34 35 37 37 38
18 19 13 14 15 16 21 20 18 16 11 13 16 18 17 18 19 21 18 17 17 19 22 25 24 25 25 26 26 27 27 26 27 28 29 28 31 32 33 32 33 34 35
20 21 19 17 19 13 20 20 18 13 16 16 15 17 19 18 18 18 16 16 14 16 17 19 20 21 22 22 23 23 27 23 25 24 26 27 29 29 30 32 32 32 32

GFSMA_sfc_dewp_147.txt.gz
Dewpoint
51 53 54 54 55 57 58 60 61 63 64 65 63 63 63 64 64 64 64 62 65 67 68 68 70 70 69 69 69 69 69 69 69 68 68 67 67 67 67 66 66 67 67
49 49 49 50 51 53 54 55 55 56 62 63 63 62 62 62 62 62 62 63 64 65 66 69 70 70 69 69 69 68 69 69 68 68 68 67 67 66 66 66 66 66 67
46 47 45 45 46 48 49 51 51 53 54 59 61 61 61 60 60 61 62 63 65 63 63 66 67 69 68 69 68 68 68 68 68 68 67 67 66 66 65 65 66 66 66
46 44 43 43 44 45 44 45 47 48 50 52 52 54 59 60 60 61 62 62 65 65 63 63 65 66 66 67 67 68 68 68 67 68 67 66 66 66 65 65 65 66 66
42 42 40 39 41 41 41 41 42 44 45 46 46 50 55 58 58 61 62 62 64 64 65 64 63 63 65 67 67 67 68 68 67 67 67 66 66 66 65 65 65 65 65
38 38 37 38 39 39 38 38 38 40 44 41 41 48 52 54 58 58 59 61 62 63 64 64 64 63 62 64 66 67 67 68 68 68 67 66 66 65 65 65 65 65 65
37 35 36 36 37 37 36 37 37 37 40 39 43 43 47 52 54 59 61 62 62 62 63 64 64 64 64 62 64 66 67 67 67 67 67 66 66 65 65 65 65 64 65
35 33 35 35 35 35 35 35 35 36 37 38 38 40 45 47 47 47 53 59 60 61 62 63 63 63 64 64 63 64 65 66 67 66 66 65 66 65 65 65 65 65 64
34 35 34 34 34 35 34 34 35 35 34 37 36 40 40 41 40 46 48 51 49 51 50 51 52 57 62 63 63 62 60 61 64 65 65 66 66 65 64 65 65 65 64
33 34 34 33 33 35 34 33 34 35 34 33 35 36 36 38 38 37 42 44 44 44 43 45 48 47 51 56 60 59 58 57 58 62 64 64 65 65 65 64 65 65 65
32 32 32 32 32 32 32 32 33 33 34 33 33 34 35 35 36 38 36 38 38 39 39 40 42 46 48 47 51 56 54 54 55 58 61 63 65 65 65 65 64 65 65
31 31 31 30 30 30 31 32 32 31 31 32 31 32 33 33 33 34 34 34 34 35 36 38 38 40 44 47 48 50 50 50 51 53 56 59 61 63 64 64 65 64 64
29 30 29 29 29 29 30 32 29 29 29 30 29 29 29 29 30 31 32 32 32 33 33 36 38 40 38 44 45 46 48 47 47 49 51 53 55 58 61 63 63 64 64
29 29 27 28 28 28 29 28 27 27 26 27 27 27 28 28 27 28 30 31 28 29 31 32 35 37 38 38 42 46 44 46 46 47 46 49 51 53 56 59 61 63 64
26 28 24 25 27 27 28 26 25 24 24 25 25 26 25 26 26 27 28 29 30 26 26 30 32 34 34 35 36 38 38 41 42 43 44 46 48 51 53 55 57 58 60
26 26 23 24 24 26 27 24 23 23 23 23 23 23 23 24 26 28 29 30 32 30 26 29 30 31 33 35 36 38 38 42 43 43 44 45 46 48 50 52 53 55 57
24 24 23 23 24 24 25 23 21 21 22 21 22 22 24 25 25 26 27 28 26 27 25 26 27 28 29 31 35 39 41 44 45 45 45 45 45 45 47 48 49 52 53
23 23 23 23 24 23 20 20 20 19 20 20 21 22 24 24 24 25 26 25 25 25 26 26 28 29 33 34 36 36 41 40 42 44 44 42 44 45 46 45 46 47 49
22 22 22 23 21 22 21 20 20 19 19 19 20 21 24 24 23 24 25 22 23 23 24 27 26 27 27 27 29 34 36 38 38 41 40 41 43 42 43 42 43 44 45
22 21 22 23 22 20 18 18 18 18 18 19 19 20 23 23 24 25 23 23 22 23 23 23 23 23 24 24 27 29 30 34 35 34 35 41 41 41 40 40 40 41 42
22 21 21 22 23 20 18 19 18 18 17 18 18 18 22 22 23 25 24 23 22 22 22 21 20 21 20 20 22 25 29 31 34 28 31 37 38 38 37 38 38 38 39
19 18 18 20 21 19 19 19 19 18 17 17 17 18 20 20 19 20 21 22 23 22 19 19 19 19 20 21 21 23 26 28 31 28 27 34 35 34 35 36 36 36 37
15 15 10 13 13 14 19 19 19 16 14 11 11 14 18 20 18 15 16 17 17 20 21 20 18 18 18 21 20 21 25 30 26 24 25 31 31 32 33 33 34 34 35
5 1 7 7 12 19 20 19 20 10 8 8 9 11 8 15 17 15 13 11 11 13 17 19 18 19 20 20 20 22 23 26 30 25 20 22 29 29 33 32 33 33 33
7 3 1 8 7 12 20 20 16 10 9 9 10 15 14 14 17 17 11 9 8 9 15 17 17 18 17 19 19 17 17 16 21 22 18 18 26 26 31 31 29 30 32
8 9 10 5 15 12 20 19 16 6 8 8 10 13 17 17 16 16 11 10 7 8 9 10 11 13 14 14 16 14 16 11 13 11 13 15 20 20 26 31 29 27 29

GFSMA_sfc_dewp_150.txt.gz
Dewpoint
50 50 50 51 51 52 53 54 54 56 61 63 64 64 63 63 64 65 65 63 63 65 66 68 69 70 70 69 69 68 68 69 69 68 68 68 67 67 67 67 67 67 66
46 45 44 45 46 49 48 50 50 52 54 57 62 64 63 63 63 63 63 63 62 64 66 67 68 69 70 69 68 68 68 68 68 68 68 67 67 66 66 66 66 66 66
44 43 42 42 43 44 44 46 46 49 50 52 53 53 59 62 61 61 61 61 62 62 64 65 66 67 68 68 68 68 68 68 68 68 67 67 66 66 66 66 66 66 66
42 40 39 39 42 41 41 42 43 44 45 48 47 48 51 55 59 60 60 61 62 63 63 63 64 65 66 68 67 69 69 68 67 67 67 66 66 66 66 66 65 66 66
38 38 37 38 40 39 39 39 39 41 42 42 41 43 47 52 56 59 60 61 61 62 64 63 62 62 64 66 67 68 68 68 67 67 67 66 66 66 66 65 65 65 66
36 36 36 37 38 36 36 36 36 38 41 39 38 40 46 48 52 56 58 59 61 63 63 64 64 64 61 64 65 67 67 67 67 67 66 66 65 66 65 65 65 65 65
35 34 35 35 36 35 35 35 35 36 38 37 40 39 43 48 52 51 55 57 60 62 62 62 62 64 64 62 64 65 66 65 67 67 66 66 66 65 65 65 65 65 65
34 33 34 34 34 35 34 34 34 35 35 37 36 39 41 43 44 44 49 48 49 49 46 48 49 50 53 59 62 64 66 67 66 66 67 66 65 64 65 65 65 65 65
34 34 33 33 33 34 33 33 34 34 33 35 36 37 35 36 36 43 43 45 43 43 41 43 42 45 49 51 52 54 57 57 62 65 66 65 65 65 64 64 65 65 65
32 32 32 31 31 32 32 33 34 33 33 33 34 34 35 36 35 35 39 43 38 39 40 40 43 43 43 46 48 52 50 51 52 56 60 63 64 65 63 63 64 64 65
31 31 31 30 30 31 31 32 32 31 32 32 32 33 33 33 35 35 33 35 35 35 36 35 39 41 42 43 48 48 48 48 48 50 52 53 57 61 64 64 65 65 64
30 30 29 29 29 30 30 30 30 29 29 30 30 30 29 30 29 30 31 30 30 33 31 34 38 39 39 44 42 44 46 45 47 49 47 47 48 52 57 61 64 65 64
29 28 28 28 28 28 28 28 27 27 26 27 27 28 29 28 27 27 28 28 27 28 30 31 35 34 36 38 39 39 41 41 42 44 44 45 46 50 51 53 59 62 65
28 26 25 27 27 28 26 25 25 25 24 25 24 26 24 25 26 26 26 26 25 25 26 28 34 34 32 32 35 38 37 39 41 42 43 45 47 49 51 51 53 57 60
25 24 24 25 26 27 25 24 24 23 23 23 23 23 24 25 26 27 28 27 29 25 23 26 25 28 29 30 32 33 35 39 41 42 43 44 46 49 49 50 52 53 56
24 23 23 24 25 25 24 23 22 23 21 22 22 23 24 25 26 26 27 27 26 25 23 23 24 26 29 31 33 34 35 39 41 42 43 44 44 45 47 48 49 49 52
23 23 23 24 24 21 21 21 20 20 21 21 21 23 23 24 24 25 26 25 24 24 23 23 24 27 28 28 27 30 36 41 44 43 43 42 43 44 45 46 46 47 48
23 23 24 23 23 21 20 20 19 19 19 19 20 21 21 22 22 24 23 22 22 23 23 22 23 23 24 24 24 29 31 34 39 40 39 42 42 41 41 41 42 42 44
22 22 23 20 20 20 20 19 19 18 18 19 19 21 21 22 22 23 21 20 21 21 22 22 22 22 21 21 22 24 27 32 33 36 36 40 41 39 39 39 40 40 41
22 22 23 23 20 18 17 18 17 18 18 18 19 20 21 21 23 23 20 20 20 19 19 19 19 20 19 19 21 22 23 29 32 28 33 36 37 37 37 37 38 38 39
21 22 22 22 22 19 18 19 17 17 17 17 17 18 21 20 21 22 22 20 20 19 17 17 17 17 17 17 18 21 23 28 30 25 28 34 35 35 35 35 36 36 36
19 18 19 20 21 17 20 21 19 17 17 16 17 17 20 19 17 19 19 20 20 20 16 16 16 15 16 17 17 20 22 26 23 24 23 31 34 32 34 34 34 34 35
17 16 10 15 13 14 19 20 19 14 13 11 12 14 17 19 16 14 14 15 16 19 19 17 15 15 16 18 17 17 19 21 23 20 20 28 29 31 32 32 33 33 33
5 5 9 12 16 19 20 20 19 5 8 9 12 12 9 14 17 13 12 9 9 10 16 18 17 17 18 19 16 17 18 21 27 21 17 17 25 26 32 29 32 33 30
8 4 0 10 11 13 21 19 13 7 7 10 10 14 12 11 17 16 10 8 7 8 12 14 15 15 15 17 16 13 12 12 17 17 15 14 22 21 30 28 28 28 27
4 6 8 4 16 9 21 18 13 8 12 11 12 11 17 15 15 15 10 9 5 5 5 6 9 11 11 11 14 13 13 9 10 9 12 12 16 17 23 29 26 25 27

GFSMA_sfc_dewp_153.txt.gz
Dewpoint
48 47 47 47 48 49 49 51 53 54 56 59 62 65 64 65 66 66 66 65 63 64 64 65 67 68 70 69 68 68 68 68 68 68 68 67 67 67 67 67 67 67 67
45 43 43 43 43 44 44 46 47 50 52 54 57 59 60 64 65 65 65 65 63 63 63 64 65 66 68 69 68 67 67 68 68 68 68 67 66 66 66 66 66 66 67
43 43 41 41 42 42 43 43 44 45 47 48 52 52 54 56 58 62 63 63 63 61 62 63 65 66 67 68 68 68 68 67 67 67 67 67 66 66 66 66 66 66 66
41 40 39 39 41 40 39 40 41 42 43 46 45 44 46 48 51 55 59 61 61 62 62 62 64 65 66 66 67 67 68 66 66 66 66 67 66 66 65 65 65 65 66
40 39 38 38 39 38 39 38 38 40 40 41 38 39 42 43 47 48 53 57 60 62 63 62 62 62 64 65 65 66 68 67 67 66 66 66 66 66 65 65 65 65 65
38 38 37 38 38 36 36 37 38 39 39 38 36 38 42 43 45 52 54 55 58 53 52 52 53 57 58 62 64 65 66 67 67 67 67 66 66 66 65 65 65 65 65
37 37 36 36 36 36 36 37 36 37 37 38 40 39 40 47 50 52 54 49 48 45 48 47 48 50 52 52 54 58 63 64 66 67 67 66 66 65 65 65 65 65 65
36 34 35 35 35 34 36 36 36 35 35 37 39 39 40 41 41 46 47 45 44 42 42 42 45 44 46 49 51 52 53 56 61 65 66 66 65 65 65 65 65 65 65
34 34 34 34 34 34 34 35 35 35 34 35 38 37 36 35 35 42 43 42 41 40 40 38 40 42 44 47 51 49 50 49 53 58 62 64 63 65 65 65 64 64 64
32 33 33 33 34 34 34 33 32 33 34 32 34 34 36 36 35 34 38 39 38 36 38 37 37 39 41 43 48 46 45 45 48 52 53 55 56 59 63 64 64 64 65
31 31 32 33 33 33 32 32 32 31 32 30 30 31 32 33 34 34 33 34 33 34 34 33 36 38 37 41 42 42 42 43 43 45 45 47 49 50 54 59 62 64 64
29 30 31 32 31 30 30 30 30 30 29 29 29 29 29 29 28 29 29 29 29 30 30 33 35 34 37 37 37 38 40 41 41 41 42 44 46 47 50 52 54 60 63
27 28 30 30 28 28 28 28 28 27 27 27 27 26 26 26 26 26 26 26 26 28 31 32 32 32 29 30 31 35 36 39 41 40 41 43 45 47 49 52 52 54 57
25 27 28 29 29 27 27 27 26 25 26 25 25 25 25 26 27 27 26 27 26 27 28 30 28 28 28 30 33 36 35 37 38 41 42 44 45 47 49 50 51 52 54
22 26 27 28 28 26 25 25 24 24 24 25 25 26 25 26 27 27 27 27 26 24 24 26 25 27 28 28 30 31 33 38 40 41 42 44 45 46 47 48 49 50 51
23 24 24 25 21 21 22 22 22 23 23 23 23 25 25 25 26 27 25 26 25 24 23 25 24 26 26 23 26 28 31 37 40 43 43 43 43 44 45 47 47 48 49
23 23 23 21 18 18 18 18 18 19 21 21 22 22 23 24 23 25 25 25 24 24 23 24 24 25 25 25 24 27 29 34 38 39 40 42 41 41 41 42 43 44 46
23 23 20 21 20 19 18 18 18 18 18 19 20 20 20 20 22 23 23 22 22 23 23 23 23 23 23 24 23 26 26 28 33 35 39 41 39 39 39 40 40 41 42
22 23 20 18 17 18 18 18 18 17 18 18 19 20 19 20 21 22 21 21 21 20 22 22 22 21 21 21 22 25 26 30 33 34 37 38 38 37 37 38 38 39 39
21 22 23 20 19 17 17 16 16 16 16 17 19 19 20 20 21 22 20 20 19 19 19 19 18 18 18 18 21 21 25 30 29 27 32 37 37 36 36 36 36 37 37
21 22 21 20 19 18 18 18 16 16 15 16 17 18 20 19 20 20 20 21 20 19 17 16 16 16 15 16 16 20 23 29 31 24 26 33 35 35 34 33 34 36 35
22 23 22 21 20 17 20 21 19 19 18 18 18 19 19 19 16 17 18 18 20 20 18 17 16 15 16 16 14 18 21 25 24 22 24 31 32 31 32 33 33 32 33
23 22 22 23 23 23 20 20 19 21 21 21 20 20 20 21 17 15 14 14 16 17 17 18 17 17 17 18 16 16 19 24 22 20 22 28 28 31 30 31 32 31 31
21 21 21 23 25 25 20 19 17 20 20 20 21 20 19 20 18 15 14 13 13 15 17 18 17 17 18 18 16 16 16 23 27 21 19 21 26 29 31 29 29 29 27
20 20 20 21 23 24 20 17 18 19 19 18 19 21 18 17 16 15 12 11 12 12 13 14 14 13 13 14 14 12 12 13 18 18 17 18 23 23 29 31 28 25 24
20 21 20 19 21 23 19 17 18 19 16 17 17 18 15 15 14 13 13 12 9 10 11 11 13 14 13 14 14 14 14 12 14 14 15 16 20 21 24 30 27 24 28

GFSMA_sfc_dewp_159.txt.gz
Dewpoint
53 52 51 49 49 48 48 49 49 49 50 51 55 56 59 60 61 61 62 65 65 65 65 66 66 66 66 67 67 67 67 68 68 67 67 67 66 67 67 67 67 67 67
50 47 46 44 44 44 45 46 46 47 47 49 49 50 51 53 57 61 61 63 63 65 65 65 65 65 65 65 66 66 67 68 67 67 66 67 66 66 66 66 66 67 67
47 46 44 44 44 44 45 45 45 44 43 42 44 45 45 47 46 50 54 58 60 62 59 61 63 63 64 64 65 66 66 67 67 67 66 66 66 65 66 66 66 66 67
46 45 43 44 45 43 43 43 43 43 43 43 45 42 41 41 42 46 46 48 57 55 54 55 54 57 60 62 63 64 65 66 67 67 67 66 65 65 65 65 65 65 66
45 43 43 44 44 41 42 42 43 44 42 42 40 40 41 40 41 37 44 52 56 54 53 51 50 52 55 57 59 61 63 64 65 66 67 66 66 65 66 65 65 65 65
44 43 42 44 42 41 41 43 44 43 42 42 39 41 43 42 42 46 54 52 51 51 50 48 49 47 51 53 54 56 58 61 63 63 63 67 66 65 65 64 65 65 64
43 43 41 42 42 42 43 44 42 42 40 41 41 40 42 46 49 49 49 48 47 47 47 47 46 45 45 51 51 52 54 55 56 57 57 60 65 64 63 63 62 63 63
42 40 42 42 42 41 43 42 42 40 39 40 39 40 38 41 42 44 47 46 47 44 43 44 43 44 45 46 47 47 47 49 51 53 54 55 57 62 63 63 62 63 65
41 42 41 42 42 40 39 40 41 40 38 39 40 38 36 36 37 41 42 42 44 39 39 40 40 41 43 44 44 43 42 42 45 48 51 52 54 55 57 62 64 64 64
39 40 41 40 40 39 40 38 38 39 38 36 37 36 40 38 36 35 36 38 36 36 39 38 39 40 40 41 44 41 40 39 41 43 46 49 51 53 54 56 60 64 64
38 38 39 38 38 36 37 37 38 38 36 36 35 34 36 37 37 33 33 33 34 34 36 37 37 36 35 34 35 37 38 38 39 41 43 45 47 49 53 53 56 58 60
35 36 35 36 36 34 35 35 36 36 36 35 34 33 32 31 31 31 31 32 31 32 35 36 34 33 33 33 33 36 35 39 38 40 42 44 45 45 48 52 54 55 57
32 34 34 34 32 33 33 33 33 33 34 33 34 31 31 30 30 30 29 29 28 29 33 35 33 33 31 32 32 34 35 40 38 42 44 45 45 45 48 49 51 53 52
29 32 33 32 31 30 31 32 30 30 33 33 33 32 29 29 30 29 28 28 27 27 28 34 30 31 32 31 33 35 33 38 40 40 43 44 45 45 45 46 49 50 51
28 30 31 30 27 28 28 28 28 29 30 30 30 30 28 28 29 29 28 28 27 26 24 27 25 29 29 29 32 33 33 36 39 39 42 41 42 43 42 44 44 46 47
28 29 28 25 25 25 25 24 24 26 26 26 24 27 27 27 27 28 26 27 26 26 24 24 24 27 27 23 27 32 32 37 37 39 39 39 39 40 40 40 41 42 44
27 26 25 23 21 22 23 24 22 23 23 25 26 25 25 25 26 25 26 25 24 24 23 23 24 25 25 25 24 30 31 33 34 38 39 37 37 38 37 38 38 39 40
27 24 24 22 21 22 22 22 21 21 22 23 24 24 23 20 25 24 24 24 23 23 22 23 23 22 22 23 23 28 27 31 33 38 38 36 35 35 35 36 36 36 37
26 23 22 21 21 22 20 20 20 20 21 22 23 24 22 22 23 22 22 22 20 18 21 21 19 20 20 20 20 24 27 32 28 34 35 34 33 33 33 34 34 35 35
25 25 24 22 22 20 18 18 18 20 20 21 23 23 22 21 21 20 19 20 18 19 19 17 17 17 17 18 18 19 24 28 28 28 34 36 35 33 31 31 32 32 33
25 25 23 23 23 20 19 23 19 20 19 20 21 20 22 20 18 18 19 20 18 18 18 16 16 15 15 14 14 17 21 25 31 25 27 33 34 31 31 30 30 31 31
26 26 24 24 22 15 21 23 23 21 21 21 21 21 21 21 18 17 16 16 18 19 19 18 16 15 15 14 14 17 18 23 22 23 25 33 35 31 29 30 29 29 31
28 28 32 29 28 24 20 21 24 25 24 24 23 23 22 22 19 18 17 15 16 17 18 20 17 17 15 17 16 15 18 22 25 21 23 30 30 33 31 26 27 26 26
31 30 28 31 27 25 19 18 21 27 25 24 24 22 22 21 18 17 18 18 18 19 17 18 18 18 18 17 17 18 20 24 31 25 22 24 27 29 33 31 24 27 24
29 28 28 26 27 24 18 16 23 26 23 22 22 19 20 19 15 15 17 16 17 17 17 13 13 14 15 16 17 15 17 18 24 23 22 22 26 28 32 30 28 24 24
28 27 26 28 26 23 17 15 23 25 23 23 21 22 15 15 14 14 17 17 15 16 18 18 20 20 19 19 17 21 18 16 20 19 20 20 24 26 26 30 28 27 29

GFSMA_sfc_dewp_162.txt.gz
Dewpoint
57 55 54 52 52 52 50 50 51 50 51 51 53 53 54 56 58 60 62 64 65 65 66 66 66 67 67 67 66 66 67 68 68 68 67 66 66 66 67 67 67 67 67
53 51 50 49 49 50 49 49 49 50 49 50 49 50 51 52 51 53 58 61 62 63 63 64 65 64 64 64 65 66 66 66 67 68 67 66 66 66 66 66 66 66 67
50 50 49 49 49 49 49 49 48 48 48 47 48 48 48 47 46 48 51 54 57 57 57 59 61 62 62 62 63 64 65 66 66 67 67 67 66 66 66 66 65 64 66
49 49 49 48 49 48 47 47 47 46 46 46 47 45 45 45 45 46 48 56 56 54 53 54 57 58 59 61 62 63 64 63 65 64 64 66 66 66 65 65 65 65 65
49 48 48 47 47 46 47 46 46 46 45 45 42 42 44 46 47 42 54 53 52 52 51 51 51 54 55 56 58 59 60 60 59 60 60 61 62 65 65 65 65 65 65
47 48 47 47 46 46 45 45 45 45 46 44 42 43 45 46 47 53 52 49 50 50 49 49 49 48 52 52 53 55 56 57 57 57 57 58 59 60 65 65 64 62 65
46 47 46 46 46 45 45 44 44 43 44 43 42 40 44 51 46 48 51 49 48 48 47 46 47 47 46 50 49 49 49 50 52 54 54 55 56 57 59 65 65 65 65
45 44 45 45 45 45 44 43 43 41 42 43 39 41 40 44 41 49 48 47 46 42 41 44 43 44 45 47 46 45 45 45 47 49 51 52 53 55 56 58 62 64 64
44 44 44 44 44 43 42 41 41 41 39 41 41 40 38 37 39 42 43 41 39 41 40 40 41 42 42 45 41 39 41 40 42 45 47 49 50 52 54 56 57 60 63
42 43 43 42 42 42 40 39 39 40 39 38 39 38 40 39 37 34 37 39 39 36 40 40 39 35 35 37 38 38 38 38 39 42 45 47 48 49 50 53 55 57 60
41 41 41 40 39 39 39 39 38 38 38 37 36 36 36 37 37 34 33 33 34 36 38 39 38 36 34 35 34 35 38 40 40 42 44 46 47 47 48 50 52 55 57
38 39 38 38 38 37 37 37 38 37 37 36 36 35 34 33 31 31 30 31 30 32 33 36 37 35 35 35 33 36 40 39 41 42 43 45 46 46 48 50 51 53 55
36 37 37 36 35 35 35 35 35 35 35 35 35 34 34 32 32 31 30 29 29 30 35 35 36 34 31 34 31 36 39 40 40 42 42 44 45 45 46 47 49 50 51
34 36 35 34 33 33 34 34 34 33 34 34 32 32 32 31 31 31 29 29 27 28 30 29 32 32 31 32 33 37 36 39 40 40 41 41 42 43 43 43 45 47 48
32 35 35 32 32 31 30 32 32 31 32 30 32 30 30 31 32 31 29 29 28 26 25 27 27 29 29 30 34 33 37 38 39 39 39 39 40 41 41 40 41 42 44
33 34 32 30 29 29 28 29 29 28 29 28 28 28 28 28 29 29 27 29 28 27 25 26 26 28 27 22 27 31 31 36 38 37 37 37 37 38 39 38 38 39 40
33 31 29 28 27 27 27 27 25 26 27 27 27 27 26 27 28 28 28 28 26 26 24 24 26 27 26 23 23 31 32 33 36 36 35 35 35 35 35 35 36 37 38
31 30 28 26 26 26 26 26 24 25 25 25 26 26 24 22 25 25 25 25 24 24 24 23 23 25 23 20 22 27 28 32 34 35 33 32 32 33 33 33 34 34 35
29 27 27 26 26 26 25 24 24 24 24 25 25 23 21 21 21 20 22 22 21 19 23 23 21 23 21 19 20 22 26 32 27 33 36 33 31 30 30 31 32 33 34
28 28 27 26 27 24 22 22 23 23 23 24 25 23 21 20 19 18 18 19 18 19 21 20 20 19 18 17 18 18 22 32 26 25 31 37 30 30 29 29 31 32 33
29 28 27 27 26 22 22 25 23 22 22 23 23 22 22 21 19 18 17 18 17 17 18 18 17 15 15 14 14 17 19 24 25 22 26 32 34 28 28 29 28 30 32
29 29 27 27 21 17 23 26 26 23 23 23 23 23 22 20 20 18 18 18 18 16 18 18 16 14 14 14 15 17 18 21 23 22 23 28 31 30 25 25 26 27 30
31 30 29 27 24 23 22 25 26 25 24 23 22 23 22 21 18 20 18 19 18 17 18 17 15 13 14 15 16 16 18 21 22 19 22 26 26 29 27 24 27 25 26
30 28 28 27 24 23 20 23 24 22 20 23 18 18 17 13 13 16 16 15 14 12 12 17 11 9 12 16 17 18 19 25 22 20 19 16 21 23 29 25 25 26 24
28 27 27 26 23 18 18 19 20 21 20 20 15 13 12 10 15 17 12 9 9 9 17 14 14 17 18 17 17 16 16 18 22 14 17 14 18 22 27 23 23 25 23
27 28 27 28 24 18 17 17 22 23 19 19 20 14 14 11 15 16 10 10 7 7 10 15 18 16 18 16 18 17 16 14 15 10 14 15 18 20 19 21 21 21 22

GFSMA_sfc_dewp_165.txt.gz
Dewpoint
51 50 48 47 47 46 47 47 46 47 47 47 48 49 51 50 50 51 56 63 64 66 66 66 66 67 66 67 66 66 66 67 67 68 68 67 66 66 66 66 66 66 66
47 46 47 46 46 47 47 46 46 46 47 47 46 48 46 46 47 49 54 58 59 60 62 64 64 65 64 64 64 65 65 66 66 66 66 67 66 66 65 65 66 66 66
47 47 46 45 46 46 45 45 45 46 45 45 46 45 45 43 43 43 57 56 54 57 58 59 61 62 63 63 63 63 64 63 63 64 65 65 66 66 65 65 65 66 66
47 47 46 45 45 45 45 44 45 44 44 45 42 42 42 43 43 48 56 55 54 51 53 55 56 57 58 60 61 61 61 60 60 61 61 61 61 63 64 65 65 65 65
47 46 45 45 45 45 45 44 44 43 43 42 41 42 43 45 46 53 51 51 51 51 50 52 51 53 54 55 56 56 56 56 57 58 58 58 59 60 61 63 65 65 64
46 45 44 45 45 44 43 43 42 42 42 41 41 42 42 43 53 51 49 49 49 49 48 48 48 51 51 50 50 51 51 51 52 54 55 55 56 57 58 59 64 65 65
45 44 44 44 44 43 42 41 42 41 41 41 39 40 46 42 45 50 48 45 47 46 45 46 46 46 49 48 47 47 47 48 48 49 50 52 53 54 56 57 59 65 65
43 44 43 42 43 41 40 40 40 39 40 41 37 39 38 41 40 43 42 40 39 40 41 40 41 41 45 40 40 43 43 44 45 47 47 48 50 52 53 55 57 59 61
43 43 42 41 41 41 39 38 39 38 37 38 38 39 35 35 38 40 39 37 39 39 39 37 35 35 40 37 37 38 40 41 43 45 47 47 49 50 51 52 54 57 58
42 42 41 40 40 39 38 38 38 37 37 35 36 36 36 37 35 32 36 35 35 36 37 36 36 34 36 35 36 39 41 40 41 43 45 47 48 48 48 51 53 55 57
40 39 38 37 37 38 37 36 36 36 36 34 35 34 33 35 33 33 32 31 32 33 38 37 36 35 34 34 33 39 41 40 41 41 43 45 47 48 48 49 50 52 54
38 38 36 36 36 35 36 36 35 34 35 34 34 34 32 31 30 30 29 29 28 30 33 36 35 34 34 32 34 41 41 40 40 40 41 42 45 45 46 47 50 50 50
36 35 35 34 33 33 34 34 34 34 34 33 32 31 33 31 32 30 29 28 28 30 34 34 32 32 30 32 34 40 40 39 39 39 41 42 43 44 44 44 45 47 49
34 34 33 33 32 33 33 33 33 33 31 32 29 29 30 31 31 30 28 28 26 27 27 25 31 30 32 32 35 38 37 38 38 39 39 40 41 41 42 41 41 43 45
33 34 33 32 30 30 30 31 30 30 28 30 29 27 28 28 30 29 28 29 27 25 25 26 26 29 28 28 34 33 35 38 38 37 36 37 37 37 38 38 39 39 41
33 33 30 30 30 29 29 30 28 29 28 28 28 26 26 27 28 29 27 28 27 26 24 25 24 27 24 20 29 32 35 36 37 35 35 35 35 36 36 36 37 38 38
33 30 30 28 28 27 27 26 26 28 27 27 26 25 25 26 25 25 26 27 25 25 22 23 25 26 21 21 22 29 34 35 35 34 33 32 32 32 32 33 34 35 36
32 30 28 27 28 27 26 25 25 26 25 26 24 23 22 21 21 21 22 23 21 22 22 21 23 22 19 19 21 21 29 32 35 38 32 31 31 31 31 32 32 33 34
32 29 27 27 27 27 25 25 25 25 25 24 22 21 20 19 18 18 20 20 19 19 22 21 21 20 18 18 19 20 27 30 25 30 36 31 30 29 29 31 30 31 34
31 27 28 28 28 26 25 25 24 24 24 24 23 21 20 19 18 18 17 17 17 18 20 20 18 17 15 15 18 17 19 27 23 26 33 31 28 29 28 28 29 30 32
32 31 30 27 24 24 24 25 23 23 23 23 22 21 22 22 21 19 16 17 16 18 18 17 15 14 12 13 14 16 18 22 24 22 26 31 28 26 27 26 26 29 32
34 30 29 24 23 21 27 29 24 23 23 23 23 21 20 21 21 19 19 18 18 13 17 16 13 12 12 14 15 16 17 19 24 20 22 25 30 25 25 27 25 27 30
31 28 26 24 24 25 28 27 26 24 22 20 20 22 19 18 18 20 20 20 16 17 16 14 12 9 14 12 16 16 17 20 18 17 21 18 26 25 25 26 24 25 27
29 27 25 24 23 24 26 25 24 21 17 12 13 12 9 8 8 15 16 12 5 6 9 16 8 8 11 14 16 17 19 21 19 17 18 11 19 23 21 23 23 24 25
29 27 25 22 20 18 24 25 21 17 12 8 10 8 5 3 16 20 8 4 -2 2 15 16 17 18 19 18 17 15 16 18 14 11 16 8 18 22 19 19 22 23 23
28 27 25 22 21 17 21 23 23 16 13 9 6 7 16 8 16 17 5 1 -1 2 3 9 11 14 16 14 19 10 12 12 11 7 12 12 15 16 16 16 19 21 20

GFSMA_sfc_dewp_168.txt.gz
Dewpoint
50 47 46 46 45 46 46 45 46 46 46 46 46 46 45 45 44 53 59 61 62 63 64 64 64 65 65 65 65 65 66 66 66 66 66 66 67 66 66 66 65 65 66
46 46 45 45 46 45 45 45 44 45 44 46 45 44 44 43 42 52 57 57 59 61 62 63 64 65 65 65 63 62 62 63 64 65 64 64 64 66 66 65 65 65 66
46 45 45 45 45 44 44 44 44 44 44 44 42 42 43 43 43 56 55 54 54 58 58 59 59 60 61 61 60 59 58 59 60 61 61 61 61 62 62 64 65 65 65
46 45 44 45 45 45 44 44 44 43 43 42 40 41 42 45 54 56 55 52 50 52 53 56 56 56 57 57 57 57 56 56 57 57 58 58 59 59 60 61 62 65 65
46 45 45 45 45 44 43 43 43 43 40 39 40 42 42 43 52 51 51 51 50 50 50 52 52 52 52 52 53 53 53 52 53 53 54 55 55 56 57 58 60 61 65
46 45 45 44 44 42 41 41 41 41 40 40 39 44 45 50 51 50 50 49 48 48 48 47 49 50 49 48 48 49 50 50 51 51 51 51 53 53 54 56 57 59 61
45 44 44 43 42 41 40 40 41 40 39 40 39 41 42 45 45 45 43 44 46 45 44 46 46 45 41 43 44 46 47 48 49 49 49 50 50 52 53 54 55 57 58
44 43 43 42 41 40 39 38 38 38 38 39 37 39 38 38 40 38 39 39 39 39 37 37 43 39 39 38 39 43 44 45 47 47 48 48 49 50 51 52 54 55 57
43 42 41 41 40 39 38 38 37 37 35 36 37 37 35 36 37 39 36 35 38 39 37 36 38 37 36 36 38 41 42 41 43 45 46 47 48 49 49 51 53 54 55
42 41 41 39 38 38 37 37 37 36 36 34 35 35 36 37 34 30 34 33 34 36 36 35 35 36 35 35 40 41 41 40 41 42 44 45 47 47 48 49 51 52 53
39 38 38 37 37 37 36 35 35 35 35 34 34 33 33 33 32 32 30 29 30 33 36 35 35 35 33 33 39 40 40 39 39 41 42 43 45 46 47 48 48 51 51
38 37 36 36 36 36 36 35 35 34 34 33 33 33 32 31 30 29 28 28 27 31 34 34 34 32 32 35 39 39 39 38 38 40 42 43 43 44 44 45 45 47 48
36 35 34 34 34 34 35 35 34 34 33 32 31 32 32 32 31 30 29 27 27 30 32 32 31 31 31 33 38 38 38 38 38 38 38 39 40 41 42 42 43 44 45
36 34 33 33 33 34 34 33 34 33 33 30 27 29 30 30 31 30 29 27 25 27 26 25 30 30 30 34 37 37 36 37 37 36 36 36 37 37 38 38 39 40 41
34 34 32 31 31 32 32 31 32 29 31 30 29 28 27 29 30 28 28 28 27 24 24 25 23 26 26 28 35 35 36 36 36 34 34 34 35 35 36 36 37 38 39
35 32 31 30 30 30 32 29 30 29 29 29 27 26 27 27 27 27 26 27 26 25 23 24 24 22 22 20 29 34 34 36 35 33 32 32 32 33 33 34 35 36 37
33 31 30 30 29 29 29 28 29 29 28 26 25 25 24 23 22 23 25 23 22 23 20 21 25 21 19 20 21 24 34 34 35 34 31 31 30 31 32 32 34 35 36
32 31 32 32 30 29 27 27 27 28 26 24 23 22 21 20 19 20 21 20 20 21 21 19 23 19 17 18 20 22 30 27 33 37 33 29 30 29 30 30 33 34 35
34 33 33 32 30 29 27 27 26 26 24 23 21 20 18 17 17 19 19 18 19 20 21 21 20 18 18 16 18 20 26 25 21 33 35 29 30 28 28 30 32 33 34
35 34 33 33 32 29 27 25 25 25 23 22 21 20 19 19 18 17 15 16 18 20 20 18 17 16 13 14 17 17 18 23 21 29 33 27 28 28 27 28 30 34 34
35 34 33 31 30 28 24 26 25 24 23 21 22 20 22 22 21 19 16 17 17 18 18 15 14 12 11 13 14 16 17 19 21 23 27 29 26 25 27 26 27 32 34
33 32 31 30 28 28 28 27 25 23 22 22 20 20 21 22 21 20 20 19 18 13 16 13 12 12 13 14 15 16 17 18 23 19 21 25 25 23 26 24 26 30 33
32 29 28 28 28 30 29 28 26 24 23 23 22 21 18 21 20 21 20 18 18 16 15 14 13 9 13 12 15 15 17 19 15 17 20 21 23 18 23 23 25 28 30
29 27 26 26 27 29 29 27 23 19 16 13 11 10 10 9 10 17 14 9 4 5 9 16 8 6 6 13 16 16 18 18 15 13 17 17 20 16 16 21 23 26 28
28 25 25 24 24 27 27 25 21 17 15 11 7 4 4 3 16 20 7 2 -2 1 12 17 20 18 20 19 16 16 18 19 8 2 9 11 16 16 14 14 20 22 25
27 26 24 23 24 22 27 25 20 16 12 8 4 6 16 7 19 18 4 2 1 3 1 6 7 11 12 11 19 7 14 10 3 3 11 12 12 14 13 14 16 18 18

GFSMA_sfc_dewp_171.txt.gz
Dewpoint
49 47 46 45 46 46 44 44 45 44 44 45 46 44 44 43 52 58 58 60 62 62 62 62 63 65 65 63 63 63 63 64 64 64 64 63 63 64 65 66 66 65 65
46 45 45 45 44 44 44 44 44 44 44 45 42 43 43 43 49 56 56 57 60 60 61 62 63 64 63 62 60 60 60 60 61 61 61 61 61 62 62 62 63 65 65
46 45 45 45 44 44 44 44 43 44 43 42 40 42 43 44 53 55 53 53 55 58 58 58 59 59 59 58 58 57 56 56 57 57 57 57 58 59 59 60 61 62 65
46 45 45 44 44 44 44 43 43 41 40 39 40 42 44 53 55 54 52 50 51 51 54 55 55 55 55 55 55 54 54 54 54 55 55 55 56 56 57 58 59 59 61
45 44 44 44 43 43 43 43 42 41 38 39 41 42 44 51 52 51 50 50 50 50 50 52 51 51 50 50 52 52 53 53 52 53 52 53 53 54 55 56 57 58 59
45 45 44 44 43 41 41 41 39 40 39 40 45 46 48 49 49 49 48 48 48 47 48 49 47 45 46 47 48 50 51 51 50 50 50 51 51 52 52 53 55 55 57
44 44 44 42 41 39 40 40 40 37 38 39 43 38 39 40 39 40 41 43 43 44 45 46 41 39 38 44 46 47 48 48 48 48 49 49 49 50 51 51 53 54 56
43 43 42 41 40 39 38 38 38 38 37 38 39 39 36 37 37 36 37 39 39 38 41 40 37 36 37 39 41 43 44 45 46 47 47 46 48 48 50 51 52 53 54
43 43 42 40 39 38 37 37 37 37 35 36 37 37 37 35 37 37 34 37 37 36 36 38 35 35 36 39 41 40 41 40 42 45 45 46 46 47 48 49 51 53 53
41 41 41 39 39 39 37 37 37 36 36 34 34 36 35 37 36 32 34 32 36 35 35 35 35 34 36 39 40 40 39 39 40 42 44 45 46 46 46 46 47 48 50
40 40 39 37 37 37 36 35 34 34 34 34 33 33 33 32 33 31 30 28 29 34 35 34 33 33 34 39 38 38 38 38 38 40 41 42 44 44 44 45 45 47 47
38 37 37 37 36 35 35 35 35 34 33 33 33 33 32 31 29 29 28 27 30 32 33 33 32 32 34 38 37 38 38 36 36 37 39 40 40 41 42 43 43 44 46
36 35 35 35 35 35 35 35 34 33 32 31 32 32 32 32 32 30 28 27 26 30 30 31 31 31 33 37 37 37 37 36 35 35 35 37 38 38 39 40 41 41 42
35 34 34 34 34 35 34 34 33 33 30 30 29 29 30 31 31 30 29 27 26 27 25 24 29 28 29 34 36 37 35 34 34 34 34 34 35 35 36 37 38 39 40
34 33 33 33 32 33 33 32 31 31 30 30 28 28 28 30 30 29 29 29 26 23 25 25 24 22 25 30 35 35 34 34 33 33 32 33 34 34 35 35 36 37 37
34 33 32 31 31 32 30 30 30 31 30 29 28 26 26 26 26 27 27 27 27 26 23 23 22 20 21 21 28 31 34 35 34 31 31 31 31 32 32 33 34 36 35
33 32 31 30 29 31 30 31 30 30 28 26 25 25 24 23 23 24 24 23 22 23 22 22 21 19 16 18 21 27 35 34 36 34 30 29 29 29 32 33 34 36 35
32 31 31 32 32 32 31 30 29 29 28 25 23 22 21 19 20 21 21 20 20 21 21 19 21 18 16 16 19 23 26 22 29 35 31 29 29 29 29 32 33 34 35
35 34 34 33 32 31 30 30 29 26 25 23 21 19 17 18 19 19 18 18 19 20 21 22 18 17 17 16 18 19 21 23 27 36 29 29 29 28 28 29 33 33 35
34 34 34 33 33 31 30 30 27 25 23 21 19 18 18 18 19 16 15 16 18 19 19 18 17 15 13 14 17 17 18 22 21 28 30 28 28 28 27 28 30 33 34
35 35 35 33 32 32 32 31 27 23 22 21 21 21 23 22 20 19 16 17 17 18 17 15 14 12 12 13 14 15 16 18 19 22 27 26 25 25 25 26 28 30 32
33 32 32 31 30 32 32 32 28 23 21 21 21 22 23 22 21 21 20 20 17 15 15 13 13 12 13 14 14 16 17 18 21 19 23 22 23 22 24 25 28 29 33
32 31 30 30 30 31 33 31 28 26 25 24 22 21 20 22 21 22 19 19 17 17 15 14 13 9 13 12 14 15 18 17 15 17 20 14 21 17 21 23 25 28 32
30 29 28 29 30 31 32 30 27 23 21 19 16 11 12 11 13 16 13 8 3 4 7 16 8 4 7 12 15 16 19 16 14 13 17 13 15 10 15 19 25 26 28
29 28 28 27 28 30 31 28 22 20 17 14 12 7 8 7 17 19 10 5 -1 2 12 20 20 19 20 18 17 18 19 18 9 2 8 11 10 10 11 10 18 23 25
28 27 26 26 28 28 30 27 21 18 14 10 6 8 17 11 20 19 6 4 1 0 -2 4 5 8 9 9 18 4 10 13 3 2 5 11 11 12 12 13 13 16 17

GFSMA_sfc_dewp_174.txt.gz
Dewpoint
51 48 46 46 46 45 45 45 45 44 45 45 45 45 45 51 56 57 58 61 62 63 64 65 65 64 63 62 62 61 61 62 62 61 61 61 62 62 62 62 63 64 65
48 46 45 45 44 44 44 44 44 44 44 43 42 44 44 48 55 56 56 59 60 61 62 62 63 62 61 59 58 58 58 58 59 59 59 59 59 59 60 60 61 62 63
46 46 45 44 44 44 44 44 44 43 41 41 43 44 46 51 54 54 54 55 56 57 58 58 59 58 58 57 56 56 56 55 55 55 55 56 56 57 57 58 59 60 61
46 45 45 44 44 44 43 43 42 39 39 41 42 47 53 54 53 52 51 51 51 52 55 54 54 53 53 53 53 53 53 52 53 53 53 53 53 54 54 56 57 58 59
46 45 44 44 43 43 43 43 41 39 40 43 45 48 51 51 51 50 50 50 50 51 50 50 50 49 50 51 51 52 51 51 51 51 51 52 52 52 53 54 55 56 57
45 44 44 43 42 42 42 40 39 41 42 47 45 42 43 44 46 47 48 47 47 48 47 44 42 44 47 48 47 48 49 49 50 50 50 50 50 51 52 52 53 55 56
45 44 43 42 41 41 41 39 39 39 40 41 40 38 38 38 38 40 42 42 44 46 42 39 38 39 41 44 45 46 47 48 48 47 48 48 48 48 49 50 52 53 54
44 43 42 40 39 39 40 40 38 37 37 38 41 39 36 36 36 37 40 39 39 42 38 36 37 39 40 41 41 42 43 44 46 47 46 46 47 47 48 47 48 49 52
43 42 41 39 38 38 37 37 38 36 35 36 38 40 37 35 36 37 36 37 37 38 37 35 36 38 40 40 40 39 41 42 44 45 45 46 46 46 45 46 46 48 48
42 42 41 39 39 38 37 37 37 37 37 34 35 35 37 38 36 32 34 34 36 35 36 35 36 37 39 39 39 39 39 39 39 41 42 43 44 43 45 44 45 46 46
41 41 40 38 37 37 36 36 36 35 35 36 34 34 33 33 34 33 31 29 34 35 35 33 34 36 39 38 38 37 37 37 37 38 40 40 41 42 42 43 44 44 45
39 39 38 37 37 36 36 35 35 34 34 34 34 34 34 32 30 30 28 27 32 32 33 32 33 35 38 37 37 38 36 35 35 36 38 39 39 40 41 41 42 43 44
37 36 36 36 36 36 36 36 34 33 32 33 32 32 33 32 32 31 29 28 28 31 30 31 31 33 36 37 37 36 36 34 35 35 35 36 36 37 38 39 40 41 42
36 35 35 35 35 36 35 35 34 32 31 31 29 30 31 31 32 31 29 28 27 27 26 28 27 27 31 36 37 37 34 33 33 33 33 34 34 35 36 37 38 39 39
35 35 34 35 35 34 34 34 32 30 30 29 29 29 30 29 30 30 30 30 26 25 26 24 23 22 25 32 36 35 34 34 33 32 32 32 32 34 34 34 36 36 37
34 34 33 33 34 33 33 32 32 31 29 29 28 27 26 26 27 27 27 28 28 26 24 23 21 19 20 21 31 32 34 35 33 31 30 30 30 31 32 32 35 35 35
34 32 32 32 33 31 32 31 31 30 28 26 26 25 24 24 24 24 25 24 23 25 23 23 19 18 15 18 23 28 32 33 35 33 31 30 28 29 31 33 34 35 34
33 32 32 33 33 32 32 31 30 30 27 25 24 23 22 21 21 21 21 20 21 21 22 20 20 18 15 16 19 24 23 23 32 35 31 29 28 28 30 32 33 35 33
34 34 34 33 32 32 32 32 32 29 27 24 21 19 18 20 19 19 19 19 20 20 21 22 18 17 16 16 17 19 21 23 29 33 30 29 28 27 28 30 32 34 33
34 34 34 34 33 32 32 32 30 28 26 23 19 17 17 19 19 16 15 16 19 19 19 19 17 14 12 13 17 16 17 22 24 28 29 28 27 28 29 28 29 32 33
34 34 34 33 33 33 33 31 30 27 25 23 21 21 21 20 20 18 15 17 18 18 17 16 13 12 11 12 12 15 16 18 21 23 25 25 24 24 25 28 29 31 28
34 33 32 32 32 32 34 32 30 26 25 23 23 24 23 23 22 21 20 19 19 19 16 13 12 11 13 13 13 15 17 19 19 22 22 22 22 21 23 27 31 28 26
33 32 32 31 30 31 34 34 30 28 26 26 25 23 21 23 22 20 20 20 19 19 17 17 15 14 15 15 14 15 18 17 17 19 20 18 19 17 21 24 29 30 26
32 31 30 30 30 31 33 33 30 27 25 23 23 21 20 17 19 17 15 12 10 11 13 18 15 12 13 15 15 17 18 17 16 18 19 17 19 16 17 19 26 28 25
30 30 29 29 29 31 33 31 26 23 21 18 16 16 16 15 20 19 12 10 8 9 14 21 20 20 20 19 18 17 17 16 14 14 15 17 17 16 16 17 19 24 25
30 29 28 29 29 30 32 29 25 21 17 16 15 15 18 16 20 19 10 10 10 6 5 9 9 10 10 15 17 10 16 17 11 13 14 16 16 16 15 17 16 17 19